Location: Toronto
(43.6532°N, 79.3832°W)
Time: 21:32:07
(UTC-05:00)

ISS - Visible Passes

Search period start: 03 December 2021 00:00
Search period end: 13 December 2021 00:00
Orbit: 417 x 423 km, 51.6° (Epoch: 03 December)

Date Brightness Start Highest point End Pass type
(mag) Time Alt. Az. Time Alt. Az. Time Alt. Az.
03 Dec -2.4 17:23:35 10° NW 17:26:29 26° NNE 17:29:04 12° ENE visible
03 Dec -2.0 19:00:14 10° WNW 19:02:04 29° WNW 19:02:04 29° WNW visible
04 Dec -3.7 18:12:56 10° NW 18:16:19 60° NNE 18:17:03 45° E visible
05 Dec -3.2 17:25:43 10° NW 17:28:59 41° NNE 17:32:14 10° E visible
05 Dec -1.9 19:02:40 10° WNW 19:05:18 31° WSW 19:05:18 31° WSW visible
06 Dec -3.1 18:15:18 10° WNW 18:18:38 54° SW 18:20:51 19° SE visible
07 Dec -3.7 17:28:04 10° WNW 17:31:30 87° SSW 17:34:53 10° SE visible
07 Dec -0.6 19:06:25 10° WSW 19:07:50 12° SW 19:09:17 10° SSW visible
08 Dec -1.0 18:18:23 10° W 18:20:56 20° SW 18:23:28 10° S visible
09 Dec -1.7 17:30:56 10° WNW 17:34:00 31° SW 17:37:03 10° SSE visible
11 Dec -0.1 17:35:13 10° WSW 17:36:30 12° SW 17:37:46 10° SSW visible
